Location: Ahstedt
(52.2048°N, 10.1060°E)
Time: 06:53:53
(UTC+00:00)

Cosmos 1959 Rocket - Pass Details

Date: 18 January 2026
Orbit: 947 x 996 km, 83.0° (Epoch: 18 February)

Event Time Altitude Azimuth Distance (km) Brightness Sun altitude
Rises 06:18:56 0° 196° (SSW) 3,631 7.6 -8.9°
Reaches altitude 10° 06:21:27 10° 199° (SSW) 2,683 6.9 -8.6°
Maximum altitude 06:27:33 70° 282° (WNW) 1,014 4.4 -7.7°
Drops below altitude 10° 06:33:40 10° 7° (N) 2,683 6.6 -6.9°
Sets 06:36:11 0° 10° (N) 3,631 7.3 -6.5°
